GFSNE_850_dewp_000.txt.gz
Dewpoint
-3 -3 -4 -4 -7 -7 -5 -4 -4 -3 -4 -5 -5 -5 -6 -6 -6 -6 -5 -5 -4 -5 -5 -5 -6 -4 -4 -5 -5 -5 -6 -8 -9 -10 -9 3 6 7
-6 -5 -7 -7 -6 -6 -6 -6 -7 -7 -9 -10 -11 -11 -10 -9 -8 -8 -8 -7 -8 -8 -13 -7 -5 -6 -5 -9 -8 -8 -8 -8 -9 -11 -11 -6 2 3
-6 -7 -8 -9 -9 -10 -10 -10 -10 -10 -11 -11 -11 -12 -11 -9 -8 -8 -9 -8 -8 -7 -9 -10 -12 -7 -6 -6 -6 -7 -7 -8 -8 -9 -10 -10 -8 -4
-8 -8 -9 -11 -11 -11 -10 -10 -10 -10 -10 -11 -11 -11 -11 -10 -9 -8 -8 -9 -9 -9 -9 -9 -7 -12 -12 -9 -7 -5 -6 -7 -7 -8 -10 -10 -12 -14
-8 -9 -10 -10 -10 -10 -10 -10 -10 -11 -11 -11 -11 -11 -11 -11 -10 -9 -9 -8 -8 -9 -8 -7 -6 -7 -12 -17 -13 -10 -9 -7 -7 -7 -7 -9 -10 -11
-9 -9 -9 -9 -10 -10 -10 -11 -11 -11 -12 -12 -12 -12 -12 -12 -11 -11 -10 -10 -9 -9 -9 -9 -9 -7 -7 -8 -14 -16 -12 -9 -8 -8 -8 -8 -9 -10
-9 -9 -9 -9 -9 -12 -12 -11 -11 -11 -11 -11 -11 -11 -11 -11 -11 -10 -10 -10 -9 -9 -8 -8 -9 -9 -9 -10 -11 -12 -16 -14 -10 -6 -7 -9 -11 -11
-10 -10 -10 -10 -10 -11 -11 -12 -11 -9 -9 -10 -10 -9 -10 -9 -9 -9 -8 -8 -9 -9 -8 -8 -7 -7 -8 -8 -8 -7 -6 -12 -14 -13 -8 -7 -11 -11
-10 -10 -11 -12 -12 -11 -10 -10 -10 -10 -10 -9 -9 -8 -8 -8 -8 -8 -8 -8 -9 -9 -8 -8 -7 -6 -6 -6 -7 -8 -7 -7 -10 -14 -13 -11 -8 -8
-10 -10 -11 -11 -11 -9 -9 -9 -9 -9 -9 -9 -9 -9 -9 -9 -9 -9 -9 -8 -8 -8 -8 -8 -8 -8 -8 -7 -7 -6 -6 -8 -9 -11 -13 -13 -7 -6
-10 -11 -10 -10 -10 -11 -10 -10 -9 -9 -9 -9 -11 -11 -11 -10 -10 -9 -8 -8 -9 -9 -9 -9 -8 -8 -8 -8 -8 -7 -6 -7 -7 -5 -5 -7 -8 -5
-11 -11 -11 -10 -11 -11 -11 -10 -10 -9 -9 -9 -9 -9 -8 -9 -11 -10 -9 -8 -9 -8 -9 -9 -8 -8 -8 -9 -8 -8 -8 -9 -10 -9 -6 -5 -3 -4
-11 -10 -10 -10 -10 -11 -11 -11 -11 -11 -11 -10 -10 -10 -9 -8 -8 -8 -8 -9 -9 -9 -9 -9 -7 -8 -8 -7 -7 -7 -8 -6 -8 -10 -10 -6 -4 -5
-11 -10 -10 -11 -11 -12 -12 -12 -12 -12 -11 -11 -10 -10 -9 -9 -8 -8 -8 -8 -8 -9 -9 -8 -8 -9 -8 -7 -7 -8 -6 -6 -9 -8 -10 -8 -5 -6
-11 -11 -12 -12 -12 -12 -12 -12 -12 -11 -11 -11 -10 -9 -9 -8 -8 -8 -8 -8 -8 -8 -8 -8 -8 -8 -8 -7 -7 -6 -6 -6 -8 -9 -6 -6 -8 -5
-13 -12 -12 -12 -13 -13 -13 -12 -12 -12 -11 -11 -10 -10 -9 -9 -8 -8 -9 -8 -8 -8 -9 -9 -9 -9 -8 -8 -7 -7 -7 -6 -7 -8 -8 -6 -5 -5
-13 -13 -13 -13 -13 -12 -13 -13 -12 -12 -12 -11 -10 -10 -9 -9 -8 -8 -8 -8 -8 -8 -8 -9 -9 -9 -9 -8 -8 -7 -7 -7 -6 -6 -7 -7 -6 -6
-13 -14 -14 -13 -13 -13 -13 -13 -13 -13 -12 -12 -11 -10 -10 -9 -8 -8 -8 -8 -8 -7 -7 -7 -8 -8 -8 -9 -10 -8 -8 -7 -6 -7 -7 -7 -6 -6
-14 -14 -14 -14 -14 -14 -14 -14 -13 -13 -13 -12 -12 -11 -10 -9 -9 -9 -8 -8 -8 -8 -7 -7 -7 -8 -7 -7 -7 -8 -9 -7 -8 -7 -7 -8 -7 -6
-14 -14 -15 -15 -15 -15 -15 -15 -14 -14 -13 -13 -12 -12 -10 -10 -10 -9 -9 -9 -8 -8 -8 -8 -8 -8 -7 -7 -6 -8 -9 -9 -8 -8 -8 -8 -7 -8
-15 -15 -16 -16 -16 -15 -15 -15 -14 -14 -14 -13 -13 -13 -11 -11 -11 -10 -10 -9 -9 -9 -8 -9 -9 -9 -9 -9 -8 -9 -9 -9 -9 -9 -8 -9 -8 -8
-19 -17 -16 -16 -16 -16 -16 -15 -14 -14 -14 -14 -13 -13 -12 -12 -11 -11 -11 -10 -10 -10 -10 -10 -10 -10 -9 -9 -8 -9 -10 -10 -10 -10 -10 -9 -9 -8
-23 -19 -17 -17 -17 -16 -16 -16 -15 -15 -15 -14 -14 -13 -13 -12 -12 -12 -11 -11 -11 -11 -10 -10 -10 -10 -10 -10 -9 -10 -11 -11 -11 -11 -11 -10 -10 -10

GFSNE_850_dewp_003.txt.gz
Dewpoint
-3 -3 -3 -3 -4 -4 -4 -4 -4 -3 -3 -3 -2 -1 -1 -1 -4 -5 -4 -4 -5 -7 -5 -3 -5 -5 -5 -5 -5 -5 -5 -4 -6 -6 -7 -9 -8 3
-3 -4 -4 -5 -5 -5 -4 -3 -3 -3 -4 -6 -8 -6 -7 -7 -7 -6 -5 -6 -5 -6 -6 -5 -5 -5 -6 -4 -4 -5 -5 -5 -5 -6 -8 -9 -10 -11
-4 -4 -5 -5 -6 -8 -9 -9 -9 -9 -9 -10 -10 -10 -10 -10 -9 -9 -7 -7 -7 -8 -8 -8 -10 -11 -7 -6 -6 -8 -7 -7 -8 -8 -8 -9 -10 -11
-5 -5 -6 -6 -7 -8 -10 -10 -11 -11 -11 -11 -11 -11 -10 -10 -10 -9 -8 -8 -8 -9 -9 -9 -8 -9 -13 -14 -9 -7 -7 -8 -8 -8 -8 -8 -10 -11
-8 -8 -8 -9 -10 -10 -10 -10 -10 -11 -11 -11 -11 -12 -11 -11 -11 -10 -10 -9 -9 -9 -9 -8 -8 -7 -8 -11 -14 -14 -11 -9 -7 -6 -7 -8 -8 -9
-11 -10 -10 -10 -10 -9 -9 -10 -10 -10 -11 -11 -12 -12 -12 -12 -12 -11 -11 -11 -10 -10 -10 -10 -10 -9 -8 -8 -9 -11 -16 -17 -11 -9 -8 -7 -7 -7
-11 -11 -11 -9 -9 -9 -10 -10 -10 -10 -11 -12 -12 -12 -12 -12 -12 -11 -11 -10 -10 -9 -9 -9 -9 -8 -9 -9 -10 -11 -13 -15 -21 -14 -10 -9 -7 -7
-11 -11 -11 -11 -9 -9 -10 -11 -11 -10 -10 -10 -10 -10 -10 -10 -10 -9 -9 -8 -8 -9 -8 -9 -8 -7 -7 -6 -6 -6 -8 -8 -9 -18 -17 -12 -8 -6
-11 -11 -10 -11 -11 -11 -11 -10 -9 -9 -9 -9 -9 -9 -9 -9 -8 -8 -7 -7 -8 -8 -8 -8 -7 -6 -7 -7 -7 -6 -5 -5 -6 -8 -9 -16 -14 -11
-11 -10 -10 -10 -10 -10 -9 -9 -10 -9 -9 -9 -9 -9 -9 -9 -9 -8 -8 -7 -7 -7 -7 -7 -9 -8 -8 -8 -8 -8 -7 -6 -7 -7 -7 -7 -8 -13
-11 -10 -10 -10 -11 -11 -11 -10 -10 -10 -10 -9 -10 -11 -11 -11 -10 -8 -8 -8 -8 -9 -9 -8 -8 -9 -8 -10 -10 -10 -11 -10 -9 -7 -7 -8 -9 -12
-11 -11 -11 -11 -11 -11 -11 -11 -10 -9 -9 -10 -9 -9 -8 -9 -9 -11 -11 -9 -10 -9 -9 -8 -8 -8 -7 -8 -10 -11 -9 -10 -10 -8 -8 -7 -5 -5
-11 -11 -11 -10 -10 -10 -10 -11 -11 -11 -11 -11 -10 -10 -10 -9 -9 -9 -9 -9 -10 -10 -10 -8 -7 -8 -8 -8 -10 -10 -7 -7 -7 -7 -8 -8 -8 -6
-12 -11 -11 -11 -12 -12 -12 -12 -12 -12 -11 -11 -10 -10 -9 -9 -9 -9 -8 -8 -8 -8 -9 -8 -8 -8 -8 -7 -7 -9 -8 -9 -7 -6 -8 -7 -7 -9
-12 -12 -12 -12 -12 -12 -12 -13 -12 -11 -11 -11 -10 -10 -9 -9 -9 -9 -8 -8 -8 -8 -8 -9 -8 -9 -7 -7 -7 -8 -7 -7 -6 -7 -8 -9 -6 -7
-13 -13 -13 -13 -13 -12 -12 -12 -12 -12 -11 -11 -11 -10 -10 -9 -8 -8 -8 -8 -8 -8 -8 -9 -9 -8 -9 -8 -8 -8 -9 -7 -6 -7 -8 -9 -6 -5
-13 -13 -13 -13 -13 -12 -12 -12 -12 -12 -12 -11 -11 -10 -10 -9 -8 -8 -8 -8 -8 -7 -7 -8 -8 -9 -9 -9 -8 -9 -8 -8 -7 -7 -6 -8 -8 -8
-13 -14 -14 -14 -14 -13 -13 -13 -13 -13 -12 -12 -11 -11 -10 -10 -9 -8 -8 -8 -7 -7 -7 -7 -8 -8 -9 -10 -10 -9 -9 -8 -8 -7 -6 -7 -7 -7
-14 -14 -14 -14 -14 -13 -13 -13 -13 -13 -13 -13 -12 -11 -11 -10 -10 -9 -8 -8 -7 -8 -7 -7 -8 -8 -7 -7 -7 -9 -9 -9 -8 -8 -8 -6 -6 -7
-15 -15 -15 -15 -14 -14 -14 -14 -13 -13 -13 -13 -12 -12 -11 -11 -10 -10 -9 -8 -8 -8 -8 -8 -7 -7 -7 -7 -7 -8 -8 -8 -9 -8 -8 -7 -7 -8
-16 -15 -15 -15 -15 -15 -15 -14 -14 -14 -14 -13 -13 -12 -12 -11 -11 -10 -10 -9 -9 -8 -8 -9 -10 -9 -9 -8 -8 -8 -9 -9 -10 -9 -8 -8 -8 -9
-16 -16 -16 -16 -16 -15 -15 -15 -14 -14 -14 -14 -13 -13 -12 -12 -12 -11 -11 -10 -10 -10 -10 -10 -10 -9 -10 -9 -8 -9 -9 -10 -10 -10 -10 -10 -9 -8
-16 -16 -16 -16 -16 -16 -16 -15 -15 -15 -14 -14 -14 -13 -13 -12 -12 -12 -11 -11 -11 -11 -11 -10 -10 -10 -10 -10 -10 -9 -10 -10 -10 -10 -11 -11 -10 -10

GFSNE_850_dewp_006.txt.gz
Dewpoint
-2 -3 -4 -4 -6 -5 -5 -4 -3 -3 -4 -6 -3 -3 -3 -1 -1 -1 -1 -2 -3 -4 -5 -7 -3 -3 -5 -5 -7 -7 -5 -4 -5 -5 -6 -6 -5 -4
-3 -3 -3 -3 -3 -3 -4 -5 -6 -5 -5 -6 -6 -7 -6 -5 -2 -2 -2 -3 -4 -3 -4 -5 -6 -5 -4 -5 -5 -4 -4 -4 -4 -4 -5 -7 -7 -8
-6 -5 -4 -4 -4 -4 -4 -5 -7 -8 -8 -8 -9 -9 -10 -9 -7 -6 -4 -5 -6 -6 -7 -7 -8 -8 -7 -5 -5 -5 -5 -5 -6 -6 -6 -6 -7 -8
-5 -6 -7 -7 -8 -8 -7 -7 -8 -9 -9 -10 -9 -10 -11 -11 -11 -10 -9 -7 -7 -6 -7 -7 -8 -8 -9 -9 -10 -7 -5 -7 -8 -8 -8 -8 -8 -8
-11 -12 -9 -9 -9 -9 -11 -10 -9 -9 -9 -9 -9 -10 -11 -11 -12 -12 -11 -10 -9 -9 -8 -9 -8 -8 -8 -9 -10 -11 -13 -9 -7 -8 -8 -7 -7 -8
-14 -16 -12 -11 -9 -8 -7 -8 -9 -9 -9 -9 -10 -11 -11 -11 -12 -13 -13 -12 -12 -10 -10 -10 -9 -9 -9 -9 -10 -11 -12 -13 -13 -12 -9 -8 -7 -7
-12 -13 -14 -12 -11 -11 -10 -8 -8 -10 -12 -13 -12 -11 -10 -10 -10 -8 -8 -8 -8 -8 -8 -9 -9 -8 -7 -8 -9 -9 -10 -10 -12 -16 -15 -12 -10 -9
-11 -13 -13 -11 -11 -10 -9 -9 -10 -11 -12 -11 -11 -10 -10 -10 -9 -9 -8 -8 -8 -9 -8 -9 -9 -8 -7 -7 -5 -5 -5 -7 -9 -9 -9 -13 -18 -17
-13 -12 -11 -10 -10 -9 -9 -9 -9 -9 -9 -9 -9 -10 -11 -12 -11 -10 -10 -9 -8 -7 -8 -8 -9 -8 -9 -10 -7 -6 -6 -6 -6 -6 -7 -7 -8 -12
-13 -13 -13 -11 -10 -10 -9 -10 -10 -11 -10 -10 -10 -11 -9 -9 -10 -10 -9 -9 -9 -9 -8 -8 -9 -10 -10 -11 -9 -9 -9 -9 -9 -6 -6 -6 -7 -8
-14 -12 -11 -12 -13 -12 -11 -12 -13 -13 -13 -12 -11 -10 -9 -10 -10 -10 -10 -10 -9 -9 -10 -10 -10 -10 -10 -11 -12 -12 -12 -13 -12 -12 -11 -7 -7 -7
-13 -13 -14 -12 -11 -11 -10 -10 -10 -10 -10 -11 -10 -11 -11 -11 -9 -8 -9 -9 -11 -11 -12 -10 -8 -8 -7 -10 -11 -12 -12 -10 -10 -10 -11 -10 -10 -8
-13 -13 -12 -11 -11 -11 -11 -12 -12 -11 -12 -12 -13 -12 -12 -12 -12 -11 -10 -9 -8 -10 -12 -9 -9 -9 -9 -7 -9 -11 -11 -10 -10 -8 -7 -8 -10 -9
-13 -12 -12 -12 -12 -12 -12 -12 -12 -12 -12 -11 -11 -10 -10 -10 -9 -9 -10 -9 -9 -8 -9 -8 -7 -8 -9 -9 -9 -10 -9 -8 -7 -7 -7 -7 -7 -7
-13 -13 -12 -12 -13 -12 -12 -12 -11 -11 -11 -11 -11 -10 -10 -9 -9 -9 -9 -9 -8 -8 -8 -8 -8 -9 -8 -9 -8 -9 -9 -10 -9 -7 -6 -7 -8 -9
-13 -13 -13 -13 -13 -12 -12 -12 -12 -11 -12 -11 -11 -11 -10 -9 -8 -8 -8 -7 -7 -8 -9 -9 -8 -8 -8 -9 -8 -9 -9 -10 -10 -8 -6 -8 -9 -9
-13 -13 -14 -13 -13 -13 -13 -12 -12 -12 -12 -12 -11 -11 -10 -10 -9 -8 -8 -8 -8 -8 -8 -8 -9 -8 -8 -8 -9 -9 -10 -10 -10 -9 -8 -6 -8 -9
-14 -14 -14 -14 -14 -14 -14 -13 -13 -13 -13 -12 -12 -11 -11 -10 -10 -9 -8 -7 -8 -8 -7 -7 -7 -7 -8 -9 -10 -11 -10 -9 -9 -9 -8 -8 -7 -7
-14 -15 -15 -15 -15 -14 -14 -14 -13 -13 -13 -12 -12 -12 -12 -11 -10 -10 -9 -9 -8 -7 -7 -7 -7 -8 -7 -8 -9 -9 -10 -11 -10 -10 -9 -8 -8 -6
-15 -15 -15 -15 -15 -15 -15 -14 -13 -14 -14 -13 -12 -12 -12 -11 -10 -11 -10 -10 -9 -8 -7 -8 -8 -8 -8 -8 -8 -8 -8 -8 -8 -8 -8 -8 -7 -7
-17 -16 -16 -15 -15 -15 -15 -15 -14 -14 -14 -14 -13 -12 -12 -11 -11 -11 -11 -10 -10 -10 -9 -10 -10 -9 -9 -9 -8 -8 -8 -9 -9 -9 -9 -9 -7 -8
-18 -17 -16 -16 -16 -16 -16 -15 -15 -15 -15 -14 -13 -13 -12 -12 -11 -12 -12 -12 -11 -11 -11 -11 -10 -10 -10 -10 -9 -8 -9 -10 -10 -11 -10 -10 -9 -8
-26 -23 -19 -21 -24 -22 -21 -19 -17 -18 -18 -17 -14 -14 -13 -13 -12 -12 -12 -12 -12 -12 -11 -11 -11 -10 -11 -11 -10 -9 -11 -11 -11 -10 -10 -11 -11 -10

GFSNE_850_dewp_009.txt.gz
Dewpoint
-3 -4 -5 -3 -3 -3 -3 -3 -3 -3 -3 -5 -7 -10 -8 -6 -5 -4 -1 -1 -1 -1 -3 -4 -3 -5 -7 -5 -5 -6 -8 -6 -4 -5 -3 -3 -3 -3
-7 -7 -6 -5 -4 -5 -4 -4 -4 -4 -4 -5 -7 -9 -8 -9 -8 -5 -3 -2 -1 -1 -2 -4 -5 -6 -7 -4 -4 -5 -5 -5 -5 -5 -4 -5 -4 -5
-7 -6 -7 -8 -8 -7 -7 -7 -7 -7 -5 -6 -7 -8 -9 -10 -11 -9 -5 -4 -3 -2 -3 -5 -6 -6 -6 -7 -6 -5 -5 -5 -5 -5 -5 -5 -5 -5
-9 -9 -10 -12 -16 -12 -9 -8 -9 -9 -9 -8 -8 -8 -9 -9 -10 -10 -10 -6 -5 -3 -3 -5 -6 -7 -7 -8 -9 -9 -9 -6 -6 -7 -7 -7 -7 -7
-11 -11 -12 -13 -15 -16 -12 -9 -9 -8 -8 -8 -9 -9 -9 -10 -11 -11 -12 -11 -8 -6 -6 -7 -6 -7 -8 -8 -8 -9 -9 -10 -11 -10 -7 -7 -8 -7
-11 -10 -11 -11 -13 -14 -13 -10 -10 -9 -9 -8 -9 -11 -13 -12 -11 -11 -12 -10 -11 -11 -10 -11 -10 -9 -9 -8 -9 -9 -10 -11 -11 -12 -12 -12 -10 -9
-10 -12 -14 -15 -11 -10 -9 -8 -8 -7 -8 -9 -10 -12 -14 -15 -15 -12 -10 -9 -7 -7 -8 -8 -8 -8 -9 -9 -9 -8 -9 -9 -9 -10 -10 -10 -12 -13
-13 -14 -16 -14 -11 -10 -10 -9 -9 -8 -9 -9 -10 -10 -10 -11 -11 -13 -11 -10 -9 -9 -8 -8 -8 -8 -8 -8 -8 -7 -6 -8 -7 -8 -8 -8 -10 -11
-12 -14 -15 -13 -13 -13 -12 -11 -10 -9 -9 -9 -9 -9 -10 -12 -13 -11 -11 -11 -10 -11 -10 -9 -9 -9 -10 -10 -10 -9 -8 -7 -8 -7 -7 -7 -7 -8
-13 -14 -14 -12 -12 -12 -13 -12 -12 -12 -12 -12 -13 -13 -13 -13 -12 -11 -9 -9 -9 -10 -11 -11 -12 -11 -11 -11 -10 -9 -9 -8 -7 -8 -9 -9 -8 -7
-13 -14 -14 -14 -13 -12 -12 -11 -11 -12 -13 -12 -12 -10 -10 -10 -10 -9 -10 -10 -12 -12 -11 -10 -10 -10 -11 -12 -12 -12 -11 -11 -12 -13 -12 -13 -12 -11
-13 -14 -14 -12 -11 -12 -11 -12 -12 -12 -11 -11 -11 -12 -13 -13 -12 -12 -12 -9 -9 -9 -13 -12 -13 -12 -10 -11 -12 -12 -12 -12 -12 -12 -10 -11 -13 -13
-13 -13 -13 -13 -12 -12 -12 -12 -12 -12 -12 -12 -13 -13 -12 -12 -11 -12 -12 -12 -11 -10 -11 -9 -10 -10 -9 -10 -11 -11 -9 -10 -11 -11 -10 -8 -7 -7
-13 -13 -13 -13 -13 -12 -12 -12 -12 -12 -12 -11 -11 -11 -10 -10 -9 -9 -9 -9 -9 -10 -11 -9 -8 -9 -9 -9 -9 -12 -12 -10 -8 -8 -9 -8 -8 -7
-13 -13 -13 -13 -13 -12 -12 -12 -12 -11 -11 -11 -11 -11 -10 -10 -10 -9 -9 -9 -9 -9 -9 -8 -8 -8 -8 -8 -9 -10 -10 -11 -10 -10 -10 -9 -8 -7
-14 -14 -14 -13 -13 -13 -13 -13 -12 -12 -12 -12 -12 -11 -10 -10 -10 -9 -9 -8 -8 -8 -8 -8 -8 -8 -8 -8 -8 -9 -9 -8 -9 -9 -11 -11 -8 -8
-14 -14 -14 -14 -14 -14 -14 -13 -13 -13 -13 -12 -12 -11 -11 -11 -10 -9 -8 -8 -8 -8 -8 -8 -8 -8 -8 -8 -8 -9 -9 -9 -9 -10 -10 -11 -10 -8
-14 -15 -15 -15 -15 -14 -14 -14 -13 -13 -13 -12 -12 -12 -11 -10 -10 -10 -9 -9 -8 -8 -8 -8 -8 -8 -7 -8 -8 -8 -9 -10 -10 -7 -7 -8 -10 -10
-15 -15 -15 -15 -15 -15 -15 -14 -13 -14 -13 -13 -12 -12 -11 -10 -11 -11 -10 -10 -10 -8 -7 -7 -7 -7 -7 -7 -8 -8 -8 -8 -10 -9 -9 -9 -9 -10
-20 -17 -16 -15 -16 -16 -15 -14 -14 -14 -14 -13 -12 -12 -11 -11 -11 -12 -11 -10 -10 -9 -9 -9 -9 -9 -8 -8 -8 -9 -9 -8 -8 -8 -8 -8 -8 -9
-26 -21 -17 -17 -17 -17 -17 -15 -15 -15 -15 -14 -13 -12 -12 -12 -11 -11 -12 -11 -11 -11 -11 -11 -10 -10 -9 -9 -9 -9 -9 -9 -9 -10 -10 -9 -9 -8
-30 -29 -23 -23 -24 -23 -22 -20 -21 -24 -21 -15 -13 -13 -13 -12 -12 -12 -12 -12 -12 -12 -11 -11 -11 -10 -11 -10 -10 -9 -9 -11 -11 -11 -11 -11 -10 -9
-19 -33 -32 -31 -30 -29 -28 -29 -30 -31 -30 -22 -15 -14 -14 -13 -12 -12 -13 -12 -12 -12 -12 -10 -11 -11 -11 -11 -10 -10 -11 -12 -12 -12 -10 -12 -12 -11

GFSNE_850_dewp_012.txt.gz
Dewpoint
-9 -7 -6 -5 -5 -5 -5 -5 -5 -5 -5 -4 -5 -6 -9 -9 -10 -8 -7 -5 -1 -1 -0 -1 -0 0 -1 -4 -5 -5 -6 -3 0 2 0 1 1 0
-11 -11 -9 -8 -9 -11 -13 -10 -7 -5 -6 -7 -9 -7 -8 -9 -10 -10 -7 -6 -4 -2 -1 -1 -2 -2 -1 -1 -3 -4 -5 -5 -5 -3 -2 -1 -1 -1
-9 -9 -9 -10 -10 -11 -12 -15 -12 -8 -6 -7 -8 -10 -10 -8 -9 -10 -10 -9 -8 -4 -2 -2 -2 -3 -2 -3 -2 -3 -5 -4 -5 -4 -4 -3 -3 -3
-11 -11 -11 -12 -13 -12 -12 -14 -16 -13 -9 -8 -7 -8 -9 -9 -9 -9 -10 -11 -10 -7 -4 -3 -2 -3 -3 -7 -8 -8 -9 -9 -6 -5 -5 -5 -6 -6
-10 -9 -10 -11 -12 -13 -13 -13 -14 -16 -11 -9 -9 -8 -8 -9 -11 -11 -10 -11 -11 -11 -7 -4 -6 -3 -3 -6 -7 -7 -8 -9 -9 -10 -9 -7 -6 -7
-9 -10 -13 -14 -15 -15 -13 -11 -10 -9 -10 -10 -8 -8 -9 -10 -12 -13 -15 -13 -11 -10 -10 -9 -5 -10 -7 -8 -8 -8 -8 -8 -9 -10 -11 -12 -12 -10
-12 -12 -12 -13 -15 -13 -10 -10 -10 -9 -9 -8 -8 -8 -10 -11 -13 -14 -13 -13 -13 -10 -8 -8 -9 -9 -9 -10 -9 -9 -9 -9 -9 -10 -10 -11 -11 -12
-11 -11 -13 -14 -15 -13 -12 -13 -10 -10 -10 -9 -8 -8 -9 -10 -11 -11 -12 -14 -15 -13 -10 -8 -8 -8 -8 -8 -8 -8 -8 -9 -9 -9 -9 -9 -9 -9
-12 -12 -13 -14 -14 -14 -14 -14 -13 -13 -12 -11 -10 -9 -9 -10 -11 -11 -12 -12 -11 -13 -13 -12 -10 -8 -9 -9 -9 -9 -9 -9 -8 -8 -7 -8 -7 -7
-12 -13 -14 -13 -13 -13 -12 -11 -12 -11 -12 -11 -11 -12 -13 -13 -13 -13 -12 -11 -11 -11 -10 -11 -14 -13 -12 -11 -11 -11 -11 -11 -11 -11 -10 -9 -9 -9
-16 -15 -13 -13 -12 -12 -12 -12 -12 -13 -12 -11 -10 -11 -11 -10 -11 -10 -10 -9 -9 -12 -12 -12 -12 -12 -13 -15 -14 -12 -11 -11 -11 -11 -12 -12 -12 -11
-14 -14 -14 -13 -12 -12 -12 -12 -12 -13 -13 -14 -13 -12 -11 -10 -11 -13 -12 -11 -11 -11 -12 -10 -12 -11 -11 -13 -12 -12 -12 -12 -12 -12 -12 -13 -13 -12
-14 -14 -14 -13 -12 -13 -12 -12 -12 -12 -12 -12 -12 -12 -13 -13 -12 -12 -13 -13 -13 -13 -13 -11 -11 -10 -9 -10 -11 -11 -10 -10 -8 -8 -9 -10 -11 -10
-14 -14 -13 -13 -13 -12 -12 -12 -12 -12 -11 -11 -11 -11 -11 -10 -10 -10 -10 -9 -9 -11 -11 -10 -10 -11 -9 -9 -9 -12 -12 -11 -11 -9 -9 -9 -9 -9
-14 -14 -14 -13 -13 -13 -13 -13 -12 -12 -12 -12 -11 -11 -11 -10 -10 -10 -9 -9 -9 -9 -9 -9 -9 -9 -8 -8 -9 -9 -10 -11 -11 -10 -10 -11 -11 -10
-14 -14 -14 -15 -14 -14 -14 -13 -13 -13 -13 -12 -12 -11 -11 -11 -10 -9 -9 -9 -8 -8 -8 -8 -8 -8 -8 -9 -8 -8 -9 -8 -9 -9 -8 -9 -11 -12
-14 -15 -16 -17 -17 -16 -14 -13 -14 -13 -13 -12 -12 -12 -11 -10 -10 -9 -9 -8 -8 -8 -8 -8 -8 -8 -8 -8 -8 -8 -8 -8 -9 -9 -8 -10 -11 -13
-17 -16 -18 -16 -16 -16 -15 -15 -14 -14 -13 -13 -12 -12 -11 -10 -10 -10 -9 -9 -8 -8 -8 -9 -8 -8 -7 -8 -8 -8 -8 -8 -9 -9 -9 -9 -10 -11
-24 -19 -17 -17 -17 -16 -15 -15 -14 -14 -14 -13 -12 -12 -11 -11 -11 -11 -10 -10 -9 -9 -9 -8 -7 -7 -7 -7 -8 -8 -8 -8 -8 -10 -10 -9 -9 -10
-31 -23 -19 -19 -21 -19 -18 -16 -16 -16 -15 -13 -13 -12 -12 -12 -12 -11 -11 -11 -10 -10 -10 -10 -10 -9 -9 -9 -8 -8 -8 -9 -9 -8 -8 -8 -8 -8
-28 -32 -25 -24 -26 -23 -23 -22 -24 -26 -19 -14 -13 -13 -12 -12 -12 -12 -11 -11 -12 -12 -11 -11 -10 -10 -10 -10 -9 -10 -9 -9 -9 -10 -10 -10 -10 -9
-17 -30 -34 -31 -30 -30 -28 -29 -31 -31 -29 -17 -14 -14 -13 -13 -13 -13 -13 -12 -12 -13 -13 -12 -11 -10 -11 -11 -11 -10 -9 -11 -11 -11 -10 -11 -11 -9
-18 -18 -22 -32 -33 -32 -31 -31 -30 -31 -32 -26 -19 -17 -16 -14 -13 -13 -13 -13 -13 -13 -12 -11 -11 -11 -11 -10 -11 -10 -11 -12 -12 -12 -11 -11 -12 -12

GFSNE_850_dewp_015.txt.gz
Dewpoint
-12 -11 -11 -11 -10 -9 -10 -11 -10 -6 -8 -10 -7 -9 -9 -6 -9 -9 -10 -9 -9 -9 -5 -1 -1 0 1 0 -1 -2 0 -2 -0 2 4 2 4 3
-12 -11 -10 -10 -9 -10 -11 -12 -13 -13 -9 -9 -12 -10 -10 -11 -8 -8 -9 -11 -10 -9 -9 -4 -1 -0 -0 -1 -3 -4 -3 -2 1 2 3 3 1 1
-11 -10 -10 -11 -10 -10 -11 -12 -13 -12 -13 -14 -13 -10 -8 -9 -11 -12 -10 -9 -11 -10 -11 -5 -3 -2 -1 -1 -1 -2 -4 -5 -4 -4 -4 -4 -3 -2
-10 -10 -9 -9 -9 -10 -13 -15 -15 -15 -13 -13 -15 -11 -8 -8 -8 -9 -12 -12 -10 -10 -11 -11 -4 -4 -2 -2 -3 -2 -2 -7 -7 -5 -5 -4 -4 -4
-9 -8 -9 -12 -13 -13 -14 -16 -16 -13 -10 -9 -11 -13 -9 -9 -10 -11 -11 -12 -14 -12 -10 -10 -7 -5 -3 -3 -3 -3 -4 -3 -7 -9 -7 -6 -6 -6
-10 -13 -12 -11 -12 -13 -15 -14 -11 -10 -10 -10 -9 -9 -9 -8 -9 -11 -13 -13 -14 -16 -10 -7 -8 -7 -5 -4 -3 -3 -4 -4 -5 -5 -9 -11 -10 -8
-12 -12 -11 -12 -11 -12 -12 -12 -12 -12 -11 -10 -10 -10 -9 -8 -9 -11 -12 -14 -15 -17 -15 -8 -7 -6 -6 -5 -4 -4 -4 -4 -5 -8 -10 -11 -11 -12
-12 -12 -12 -14 -15 -13 -13 -12 -12 -11 -11 -11 -11 -10 -9 -9 -9 -10 -11 -12 -13 -15 -15 -13 -9 -8 -7 -5 -5 -5 -4 -5 -7 -8 -9 -10 -11 -11
-14 -14 -15 -14 -13 -13 -13 -12 -11 -11 -11 -11 -11 -11 -11 -10 -9 -10 -11 -11 -12 -13 -13 -14 -14 -10 -8 -8 -8 -7 -7 -7 -7 -8 -8 -8 -9 -9
-15 -15 -14 -13 -13 -12 -12 -12 -13 -13 -12 -12 -11 -11 -12 -12 -12 -13 -13 -13 -13 -13 -12 -11 -13 -15 -13 -11 -9 -10 -9 -10 -10 -10 -11 -11 -12 -13
-15 -14 -13 -13 -13 -12 -12 -12 -12 -13 -13 -13 -14 -12 -10 -11 -10 -10 -10 -10 -10 -11 -12 -10 -12 -13 -13 -16 -15 -14 -13 -12 -12 -11 -12 -12 -11 -11
-14 -14 -14 -14 -13 -13 -12 -12 -12 -12 -12 -12 -13 -13 -14 -12 -11 -10 -11 -11 -11 -10 -11 -11 -13 -11 -11 -13 -14 -15 -14 -13 -13 -13 -13 -14 -13 -12
-14 -14 -14 -13 -13 -13 -13 -12 -12 -12 -12 -12 -12 -11 -11 -12 -13 -14 -13 -13 -14 -14 -14 -13 -13 -12 -10 -11 -11 -11 -12 -11 -10 -10 -12 -12 -12 -12
-14 -14 -14 -14 -13 -13 -13 -13 -13 -12 -12 -12 -11 -11 -11 -11 -10 -10 -10 -10 -10 -11 -10 -10 -11 -12 -12 -11 -10 -11 -10 -9 -11 -11 -10 -10 -10 -10
-15 -14 -14 -16 -17 -15 -14 -13 -13 -13 -13 -12 -12 -12 -11 -11 -10 -10 -10 -10 -9 -9 -9 -9 -11 -10 -10 -10 -9 -10 -10 -10 -10 -12 -11 -8 -8 -9
-19 -15 -15 -18 -17 -15 -14 -14 -14 -13 -13 -12 -12 -12 -11 -11 -10 -10 -9 -9 -9 -8 -8 -8 -9 -10 -9 -9 -9 -9 -9 -8 -9 -9 -10 -10 -11 -11
-27 -21 -22 -21 -19 -17 -15 -15 -15 -14 -13 -13 -12 -12 -11 -11 -10 -10 -9 -9 -8 -9 -8 -8 -8 -8 -8 -8 -8 -8 -9 -8 -9 -8 -9 -8 -10 -10
-31 -27 -23 -21 -20 -19 -17 -16 -16 -15 -14 -13 -12 -12 -11 -11 -11 -10 -10 -9 -9 -8 -8 -8 -8 -8 -8 -8 -8 -8 -8 -8 -8 -8 -8 -9 -11 -11
-33 -30 -25 -25 -25 -21 -19 -18 -18 -18 -15 -13 -13 -12 -12 -12 -11 -11 -11 -10 -10 -9 -9 -9 -8 -8 -8 -9 -8 -8 -8 -8 -9 -8 -9 -9 -9 -8
-19 -33 -31 -30 -30 -26 -25 -26 -30 -26 -18 -14 -13 -13 -12 -12 -12 -12 -12 -11 -11 -10 -10 -10 -10 -9 -8 -8 -8 -9 -8 -9 -10 -9 -8 -8 -9 -10
-17 -20 -31 -33 -32 -31 -30 -30 -31 -31 -27 -15 -14 -14 -13 -13 -13 -12 -12 -12 -12 -12 -12 -11 -11 -10 -11 -10 -9 -9 -9 -9 -9 -9 -10 -10 -10 -10
-18 -20 -19 -23 -29 -32 -31 -30 -30 -30 -32 -26 -19 -17 -15 -14 -13 -13 -13 -13 -13 -13 -12 -12 -11 -11 -11 -11 -11 -11 -9 -10 -11 -11 -11 -11 -11 -11
-16 -18 -23 -26 -28 -26 -25 -24 -26 -28 -29 -31 -30 -23 -21 -20 -15 -14 -14 -14 -14 -15 -13 -11 -11 -11 -11 -11 -11 -10 -10 -11 -12 -12 -12 -11 -11 -13

GFSNE_850_dewp_021.txt.gz
Dewpoint
-13 -12 -12 -12 -11 -10 -9 -9 -7 -7 -9 -11 -11 -11 -10 -10 -9 -8 -8 -8 -11 -8 -8 -10 -10 -11 -13 -8 -4 -3 0 1 2 2 2 2 1 -0
-12 -11 -11 -10 -9 -9 -10 -8 -8 -8 -9 -12 -13 -12 -12 -12 -10 -9 -9 -10 -11 -11 -12 -11 -10 -10 -11 -12 -6 -3 -3 0 1 1 2 2 2 2
-11 -10 -10 -9 -9 -8 -8 -9 -10 -11 -11 -12 -12 -12 -12 -11 -10 -10 -10 -9 -8 -9 -10 -12 -12 -12 -11 -12 -9 -4 -2 -1 0 2 2 2 3 3
-10 -10 -9 -8 -9 -9 -9 -10 -10 -11 -11 -12 -13 -12 -11 -10 -10 -9 -9 -9 -9 -9 -10 -10 -12 -13 -13 -12 -12 -6 -2 -1 -0 2 2 2 3 3
-9 -10 -11 -10 -9 -10 -10 -10 -11 -11 -11 -11 -12 -11 -11 -11 -9 -9 -9 -9 -9 -9 -10 -11 -12 -14 -14 -13 -14 -8 -3 -2 -1 -0 1 2 3 2
-11 -12 -15 -16 -12 -11 -11 -11 -11 -11 -11 -11 -11 -12 -11 -11 -10 -9 -10 -10 -10 -10 -10 -11 -13 -15 -13 -11 -12 -6 -3 -3 -5 -4 -3 -0 1 1
-14 -18 -19 -17 -16 -14 -12 -11 -12 -11 -11 -11 -12 -12 -12 -12 -11 -11 -10 -9 -9 -9 -10 -10 -10 -8 -11 -8 -5 -5 -4 -3 -5 -6 -6 -4 -4 -4
-19 -18 -17 -16 -12 -12 -14 -13 -12 -12 -11 -11 -12 -10 -11 -11 -11 -11 -10 -10 -10 -9 -9 -10 -10 -9 -7 -7 -5 -6 -4 -3 -3 -4 -5 -5 -4 -6
-18 -16 -13 -12 -13 -13 -12 -12 -12 -12 -12 -12 -11 -11 -12 -12 -11 -10 -10 -10 -9 -9 -9 -10 -9 -9 -9 -7 -6 -5 -5 -4 -3 -4 -5 -4 -4 -4
-17 -14 -12 -13 -13 -13 -12 -12 -12 -12 -11 -11 -11 -11 -11 -11 -11 -11 -11 -10 -10 -9 -9 -9 -10 -9 -10 -15 -8 -6 -6 -5 -4 -4 -4 -4 -5 -5
-16 -13 -13 -13 -13 -13 -13 -12 -12 -12 -12 -12 -12 -12 -12 -12 -12 -11 -11 -10 -10 -12 -11 -10 -10 -9 -9 -11 -14 -9 -6 -5 -5 -4 -4 -5 -5 -5
-15 -17 -16 -14 -13 -13 -13 -13 -13 -12 -13 -12 -12 -11 -11 -11 -11 -12 -11 -10 -10 -10 -10 -10 -10 -9 -9 -11 -14 -14 -10 -6 -5 -5 -5 -5 -5 -6
-17 -25 -20 -17 -15 -15 -14 -14 -13 -14 -13 -13 -12 -12 -11 -11 -11 -11 -11 -11 -11 -11 -12 -10 -11 -10 -10 -9 -8 -13 -14 -10 -7 -8 -7 -8 -7 -7
-18 -28 -30 -23 -23 -21 -17 -15 -15 -15 -13 -13 -13 -12 -12 -12 -11 -11 -11 -11 -10 -11 -11 -10 -10 -10 -10 -9 -9 -9 -10 -14 -12 -11 -9 -9 -9 -10
-17 -28 -31 -27 -26 -23 -20 -17 -16 -16 -14 -13 -13 -12 -12 -11 -11 -10 -10 -10 -10 -10 -10 -10 -10 -10 -10 -9 -10 -9 -8 -9 -13 -11 -11 -11 -11 -12
-18 -23 -30 -28 -28 -26 -24 -21 -22 -18 -14 -13 -13 -12 -11 -11 -11 -10 -10 -9 -9 -9 -9 -9 -9 -9 -9 -10 -9 -9 -9 -8 -10 -9 -9 -11 -11 -10
-19 -19 -25 -29 -29 -28 -28 -30 -30 -21 -15 -14 -13 -12 -12 -12 -11 -11 -10 -10 -9 -9 -9 -8 -8 -9 -9 -9 -9 -9 -9 -9 -8 -8 -9 -10 -10 -9
-19 -18 -19 -23 -28 -29 -29 -29 -30 -31 -21 -14 -14 -13 -13 -12 -12 -12 -11 -10 -10 -10 -9 -9 -9 -9 -9 -9 -9 -9 -9 -9 -9 -8 -9 -8 -8 -8
-17 -20 -18 -19 -21 -26 -29 -29 -29 -29 -30 -18 -14 -14 -13 -13 -13 -13 -12 -12 -11 -11 -10 -10 -9 -8 -8 -7 -9 -9 -9 -9 -8 -9 -8 -8 -8 -8
-14 -17 -20 -21 -20 -21 -22 -22 -24 -26 -28 -30 -27 -21 -17 -14 -14 -13 -13 -13 -13 -12 -11 -11 -10 -9 -9 -9 -9 -9 -9 -9 -9 -9 -9 -9 -9 -9
-14 -15 -17 -19 -22 -23 -26 -26 -22 -20 -21 -23 -28 -28 -25 -23 -20 -15 -14 -14 -14 -13 -12 -12 -11 -11 -10 -10 -9 -9 -9 -9 -9 -9 -9 -9 -9 -9
-14 -14 -15 -16 -18 -19 -20 -22 -27 -28 -26 -24 -24 -25 -28 -27 -26 -22 -17 -17 -15 -15 -16 -13 -12 -11 -10 -10 -10 -11 -10 -10 -10 -10 -11 -11 -10 -9
-14 -15 -15 -15 -16 -16 -17 -18 -18 -20 -23 -21 -23 -25 -26 -28 -29 -28 -21 -22 -17 -20 -18 -13 -12 -11 -11 -11 -11 -11 -11 -10 -10 -11 -11 -11 -11 -12